McAlester, OK

7:09 PM CDT on March 30, 2017 (GMT -0500)
McAlester Regional

Weather History for KMLC - October, 2012

Change the Weather History Date:

Monday, October 29, 2012

  Actual Average Record
Temperature  
Mean Temperature 47 °F -  
Max Temperature 64 °F 69 °F 86 °F (2016)
Min Temperature 30 °F 47 °F 28 °F (1980)
Degree Days  
Heating Degree Days 18    
Moisture  
Dew Point 29 °F    
Average Humidity 60    
Maximum Humidity 92    
Minimum Humidity 20    
Precipitation  
Precipitation 0.00 in - - ()
Sea Level Pressure  
Sea Level Pressure 30.23 in    
Wind  
Wind Speed 1 mph (SSW)    
Max Wind Speed 7 mph    
Max Gust Speed -    
Visibility 10 miles    
Events      
Averages and records for this station are not official NWS values.
T = Trace of Precipitation, MM = Missing Value Source: NWS Daily Summary

Daily Weather History Graph

Daily Weather History Graph

Search for Another Location

Airport or City:

Trip Planner

Search our weather history database for the weather conditions in past years. The results will help you decide how hot, cold, wet, or windy it might be!

Date:

Astronomy

Oct. 29, 2012 Rise Set
Actual Time 7:41 AM CDT 6:31 PM CDT
Civil Twilight 7:15 AM CDT 6:57 PM CDT
Nautical Twilight 6:45 AM CDT 7:27 PM CDT
Astronomical Twilight 6:16 AM CDT 7:56 PM CDT
Moon 6:25 PM CDT (10/29) 7:31 AM CDT (10/29)
Length of Visible Light 11h 41m
Length of Day
10h 49m
Full, 100% of the Moon is Illuminated
Oct 29
Full
Oct 29
Full
Nov 6
Last Quarter
Nov 13
New
Nov 20
First Quarter

Hourly Weather History & Observations

Time (CDT) Temp. Dew Point Humidity Pressure Visibility Wind Dir Wind Speed Gust Speed Precip Events Conditions
12:53 AM 33.1 °F 28.9 °F 85% 30.28 in 10.0 mi Calm Calm - N/A   Clear
1:53 AM 32.0 °F 28.0 °F 85% 30.28 in 10.0 mi Calm Calm - N/A   Partly Cloudy
2:53 AM 32.0 °F 28.0 °F 85% 30.28 in 10.0 mi Calm Calm - N/A   Clear
3:53 AM 30.9 °F 28.0 °F 89% 30.27 in 10.0 mi Calm Calm - N/A   Clear
4:53 AM 30.9 °F 28.0 °F 89% 30.27 in 10.0 mi Calm Calm - N/A   Scattered Clouds
5:53 AM 30.0 °F 28.0 °F 92% 30.28 in 10.0 mi Calm Calm - N/A   Scattered Clouds
6:53 AM 30.0 °F 28.0 °F 92% 30.28 in 10.0 mi Calm Calm - N/A   Partly Cloudy
7:53 AM 30.0 °F 28.0 °F 92% 30.30 in 9.0 mi Calm Calm - N/A   Clear
8:53 AM 39.0 °F 34.0 °F 82% 30.32 in 10.0 mi Calm Calm - N/A   Scattered Clouds
9:53 AM 48.9 °F 30.9 °F 50% 30.34 in 10.0 mi ENE 3.5 mph - N/A   Partly Cloudy
10:53 AM 54.0 °F 30.0 °F 40% 30.33 in 10.0 mi Variable 3.5 mph - N/A   Clear
11:53 AM 57.9 °F 27.0 °F 31% 30.32 in 10.0 mi SW 6.9 mph - N/A   Clear
12:53 PM 60.1 °F 26.1 °F 27% 30.28 in 10.0 mi Calm Calm - N/A   Clear
1:53 PM 62.1 °F 26.1 °F 25% 30.24 in 10.0 mi Calm Calm - N/A   Clear
2:53 PM 64.0 °F 27.0 °F 25% 30.20 in 10.0 mi SSW 4.6 mph - N/A   Clear
3:53 PM 64.9 °F 24.1 °F 21% 30.18 in 10.0 mi Calm Calm - N/A   Clear
4:53 PM 64.0 °F 21.9 °F 20% 30.16 in 10.0 mi SSW 6.9 mph - N/A   Clear
5:53 PM 63.0 °F 24.1 °F 23% 30.15 in 10.0 mi SSW 5.8 mph - N/A   Partly Cloudy
6:53 PM 51.1 °F 32.0 °F 48% 30.15 in 10.0 mi Calm Calm - N/A   Clear
7:53 PM 46.0 °F 32.0 °F 58% 30.16 in 10.0 mi Calm Calm - N/A   Partly Cloudy
8:53 PM 44.1 °F 32.0 °F 63% 30.15 in 10.0 mi Calm Calm - N/A   Partly Cloudy
9:53 PM 41.0 °F 33.1 °F 73% 30.14 in 10.0 mi Calm Calm - N/A   Partly Cloudy
10:53 PM 41.0 °F 32.0 °F 70% 30.14 in 10.0 mi Calm Calm - N/A   Partly Cloudy
11:53 PM 39.0 °F 30.9 °F 73% 30.12 in 10.0 mi Calm Calm - N/A   Scattered Clouds